START_TIME,STEP,MOV.,M15,t_acc.,M20,t_acc.
1980-11-13 15:00:32.450 ,5,0,0.,24.0,0.,24.0
1980-11-13 15:00:56.450 ,6,1,0.,24.0,0.,24.0
1980-11-13 15:01:20.450 ,6,0,0.,24.0,0.,24.0
1980-11-13 15:01:44.450 ,7,1,0.,24.0,0.,24.0
1980-11-13 15:02:08.450 ,7,0,0.,24.0,0.,24.0
1980-11-13 15:02:32.450 ,7,1,0.,24.0,0.,24.0
1980-11-13 15:02:56.450 ,7,0,0.,24.0,0.,24.0
1980-11-13 15:03:20.450 ,6,1,0.,24.0,0.,24.0
1980-11-13 15:03:44.450 ,6,0,0.,24.0,0.,24.0
1980-11-13 15:04:08.450 ,5,1,0.,24.0,0.,24.0
1980-11-13 15:04:32.450 ,5,0,0.,24.0,0.,24.0
1980-11-13 15:04:56.450 ,4,1,1.,24.0,0.,24.0
1980-11-13 15:05:20.450 ,4,0,0.,24.0,0.,24.0
1980-11-13 15:05:44.450 ,3,1,0.,24.0,0.,24.0
1980-11-13 15:06:08.450 ,3,0,0.,24.0,0.,24.0
1980-11-13 15:06:32.450 ,2,1,2.,24.0,0.,24.0
1980-11-13 15:06:56.450 ,2,0,1.,24.0,0.,24.0
1980-11-13 15:07:20.450 ,1,1,0.,24.0,0.,24.0
1980-11-13 15:07:44.450 ,1,0,0.,24.0,0.,24.0
1980-11-13 15:08:08.450 ,0,1,0.,24.0,0.,24.0
1980-11-13 15:08:32.450 ,0,0,0.,24.0,0.,24.0
1980-11-13 15:08:56.450 ,0,1,0.,24.0,0.,24.0
1980-11-13 15:09:20.450 ,0,0,0.,24.0,0.,24.0
1980-11-13 15:09:44.450 ,1,1,0.,24.0,0.,24.0
1980-11-13 15:10:08.450 ,1,0,0.,24.0,0.,24.0
1980-11-13 15:10:32.450 ,2,1,0.,24.0,0.,24.0
1980-11-13 15:10:56.450 ,2,0,0.,24.0,0.,24.0
1980-11-13 15:11:20.450 ,3,1,0.,24.0,0.,24.0
1980-11-13 15:11:44.450 ,3,0,0.,24.0,0.,24.0
1980-11-13 15:12:08.450 ,4,1,0.,24.0,0.,24.0
1980-11-13 15:12:32.450 ,4,0,0.,24.0,0.,24.0
1980-11-13 15:12:56.450 ,5,1,0.,24.0,0.,24.0
1980-11-13 15:13:20.450 ,5,0,0.,24.0,0.,24.0
1980-11-13 15:13:44.450 ,6,1,0.,24.0,0.,24.0
1980-11-13 15:14:08.450 ,6,0,0.,24.0,0.,24.0
1980-11-13 15:14:32.460 ,7,1,0.,24.0,0.,24.0
1980-11-13 15:14:56.460 ,7,0,0.,24.0,0.,24.0
1980-11-13 15:15:20.460 ,7,1,0.,24.0,0.,24.0
1980-11-13 15:15:44.460 ,7,0,0.,24.0,0.,24.0
1980-11-13 15:16:08.460 ,6,1,0.,24.0,0.,24.0
1980-11-13 15:16:32.460 ,6,0,0.,24.0,0.,24.0
1980-11-13 15:16:56.460 ,5,1,0.,24.0,0.,24.0
1980-11-13 15:17:20.450 ,5,0,0.,24.0,0.,24.0
1980-11-13 15:17:44.460 ,4,1,0.,24.0,0.,24.0
1980-11-13 15:18:08.460 ,4,0,0.,24.0,0.,24.0
1980-11-13 15:18:32.460 ,3,1,0.,24.0,0.,24.0
1980-11-13 15:18:56.460 ,3,0,0.,24.0,0.,24.0
1980-11-13 15:19:20.460 ,2,1,0.,24.0,0.,24.0
1980-11-13 15:19:44.460 ,2,0,0.,24.0,0.,24.0
1980-11-13 15:20:08.460 ,1,1,0.,24.0,0.,24.0
1980-11-13 15:20:32.460 ,1,0,0.,24.0,0.,24.0
1980-11-13 15:20:56.460 ,0,1,0.,24.0,0.,24.0
1980-11-13 15:21:20.460 ,0,0,0.,24.0,0.,24.0
1980-11-13 15:21:44.460 ,0,1,0.,24.0,0.,24.0
1980-11-13 15:22:08.460 ,0,0,0.,24.0,0.,24.0
1980-11-13 15:22:32.460 ,1,1,1.,24.0,0.,24.0
1980-11-13 15:22:56.460 ,1,0,0.,24.0,0.,24.0
1980-11-13 15:23:20.460 ,2,1,0.,24.0,0.,24.0
1980-11-13 15:23:44.460 ,2,0,0.,24.0,0.,24.0
1980-11-13 15:24:08.460 ,3,1,0.,24.0,0.,24.0
1980-11-13 15:24:32.460 ,3,0,0.,24.0,0.,24.0
1980-11-13 15:24:56.460 ,4,1,0.,24.0,0.,24.0
1980-11-13 15:25:20.460 ,4,0,0.,24.0,0.,24.0
1980-11-13 15:25:44.460 ,5,1,0.,24.0,0.,24.0
1980-11-13 15:26:08.460 ,5,0,0.,24.0,0.,24.0
1980-11-13 15:26:32.460 ,6,1,0.,24.0,0.,24.0
1980-11-13 15:26:56.460 ,6,0,0.,24.0,0.,24.0
1980-11-13 15:27:20.460 ,7,1,0.,24.0,0.,24.0
1980-11-13 15:27:44.460 ,7,0,0.,24.0,0.,24.0
1980-11-13 15:28:08.460 ,7,1,0.,24.0,0.,24.0
1980-11-13 15:28:32.460 ,7,0,0.,24.0,0.,24.0
1980-11-13 15:28:56.460 ,6,1,0.,24.0,0.,24.0
1980-11-13 15:29:20.460 ,6,0,0.,24.0,0.,24.0
1980-11-13 15:29:44.460 ,5,1,0.,24.0,0.,24.0
1980-11-13 15:30:08.460 ,5,0,0.,24.0,0.,24.0
1980-11-13 15:30:32.460 ,4,1,0.,24.0,0.,24.0
1980-11-13 15:30:56.460 ,4,0,0.,24.0,0.,24.0
1980-11-13 15:31:20.460 ,3,1,0.,24.0,0.,24.0
1980-11-13 15:31:44.460 ,3,0,0.,24.0,0.,24.0
1980-11-13 15:32:08.460 ,2,1,0.,24.0,0.,24.0
1980-11-13 15:32:32.460 ,2,0,0.,24.0,0.,24.0
1980-11-13 15:32:56.460 ,1,1,0.,24.0,0.,24.0
1980-11-13 15:33:20.460 ,1,0,0.,24.0,0.,24.0
1980-11-13 15:33:44.460 ,0,1,0.,24.0,0.,24.0
1980-11-13 15:34:08.460 ,0,0,0.,24.0,0.,24.0
1980-11-13 15:34:32.450 ,0,1,0.,24.0,0.,24.0
1980-11-13 15:34:56.450 ,0,0,0.,24.0,0.,24.0
1980-11-13 15:35:20.450 ,1,1,0.,24.0,0.,24.0
1980-11-13 15:35:44.450 ,1,0,0.,24.0,0.,24.0
1980-11-13 15:36:08.450 ,2,1,0.,24.0,0.,24.0
1980-11-13 15:36:32.450 ,2,0,0.,24.0,0.,24.0
1980-11-13 15:36:56.450 ,3,1,0.,24.0,0.,24.0
1980-11-13 15:37:20.450 ,3,0,0.,24.0,0.,24.0
1980-11-13 15:37:44.450 ,4,1,0.,24.0,0.,24.0
1980-11-13 15:38:08.450 ,4,0,0.,24.0,0.,24.0
1980-11-13 15:38:32.450 ,5,1,0.,24.0,0.,24.0
1980-11-13 15:38:56.450 ,5,0,0.,24.0,0.,24.0
1980-11-13 15:39:20.450 ,6,1,0.,24.0,0.,24.0
1980-11-13 15:39:44.450 ,6,0,0.,24.0,0.,24.0
1980-11-13 15:40:08.450 ,7,1,0.,24.0,0.,24.0
1980-11-13 15:40:32.450 ,7,0,0.,24.0,0.,24.0
1980-11-13 15:40:56.450 ,7,1,0.,24.0,0.,24.0
1980-11-13 15:41:20.450 ,7,0,0.,24.0,0.,24.0
1980-11-13 15:41:44.450 ,6,1,0.,24.0,0.,24.0
1980-11-13 15:42:08.450 ,6,0,0.,24.0,0.,24.0
1980-11-13 15:42:32.450 ,5,1,0.,24.0,0.,24.0
1980-11-13 15:42:56.450 ,5,0,0.,24.0,0.,24.0
1980-11-13 15:43:20.450 ,4,1,0.,24.0,0.,24.0
1980-11-13 15:43:44.450 ,4,0,0.,24.0,0.,24.0
1980-11-13 15:44:08.450 ,3,1,0.,24.0,0.,24.0
1980-11-13 15:44:32.450 ,3,0,0.,24.0,0.,24.0
1980-11-13 15:44:56.450 ,2,1,0.,24.0,0.,24.0
1980-11-13 15:45:20.450 ,2,0,0.,24.0,0.,24.0
1980-11-13 15:45:44.450 ,1,1,0.,24.0,0.,24.0
1980-11-13 15:46:08.450 ,1,0,0.,24.0,0.,24.0
1980-11-13 15:46:32.450 ,0,1,0.,24.0,0.,24.0
1980-11-13 15:46:56.450 ,0,0,0.,24.0,0.,24.0
1980-11-13 15:47:20.450 ,0,1,0.,24.0,0.,24.0
1980-11-13 15:47:44.450 ,0,0,0.,24.0,0.,24.0
1980-11-13 15:48:08.450 ,1,1,0.,24.0,0.,24.0
1980-11-13 15:48:32.450 ,1,0,0.,24.0,0.,24.0
1980-11-13 15:48:56.450 ,2,1,0.,24.0,0.,24.0
1980-11-13 15:49:20.450 ,2,0,0.,24.0,0.,24.0
1980-11-13 15:49:44.450 ,3,1,0.,24.0,0.,24.0
1980-11-13 15:50:08.450 ,3,0,0.,24.0,0.,24.0
1980-11-13 15:50:32.450 ,4,1,0.,24.0,0.,24.0
1980-11-13 15:50:56.450 ,4,0,0.,24.0,0.,24.0
1980-11-13 15:51:20.450 ,5,1,0.,24.0,0.,24.0
1980-11-13 15:51:44.450 ,5,0,0.,24.0,0.,24.0
1980-11-13 15:52:08.450 ,6,1,0.,24.0,0.,24.0
1980-11-13 15:52:32.450 ,0,0,0.,24.0,0.,24.0
1980-11-13 15:53:30.650 ,0,0,0.,24.0,0.,24.0
1980-11-13 15:53:44.450 ,7,1,0.,24.0,0.,24.0
1980-11-13 15:54:08.450 ,7,0,0.,24.0,0.,24.0
1980-11-13 15:54:32.450 ,6,1,0.,24.0,0.,24.0
1980-11-13 15:54:56.450 ,6,0,0.,24.0,0.,24.0
1980-11-13 15:55:20.450 ,5,1,0.,24.0,0.,24.0
1980-11-13 15:55:44.450 ,5,0,0.,24.0,0.,24.0
1980-11-13 15:56:08.450 ,4,1,0.,24.0,0.,24.0
1980-11-13 15:56:32.450 ,4,0,0.,24.0,0.,24.0
1980-11-13 15:56:56.450 ,3,1,0.,24.0,0.,24.0
1980-11-13 15:57:20.450 ,3,0,0.,24.0,0.,24.0
1980-11-13 15:57:44.450 ,2,1,0.,24.0,0.,24.0
1980-11-13 15:58:08.450 ,2,0,0.,24.0,0.,24.0
1980-11-13 15:58:32.450 ,1,1,0.,24.0,0.,24.0
1980-11-13 15:58:56.450 ,1,0,0.,24.0,0.,24.0
1980-11-13 15:59:20.450 ,0,1,0.,24.0,0.,24.0
1980-11-13 15:59:44.450 ,0,0,0.,24.0,0.,24.0
1980-11-13 16:00:08.450 ,0,1,0.,24.0,0.,24.0
1980-11-13 16:00:32.460 ,0,0,0.,24.0,0.,24.0
1980-11-13 16:00:56.460 ,1,1,0.,24.0,0.,24.0
1980-11-13 16:01:20.460 ,1,0,0.,24.0,0.,24.0
1980-11-13 16:01:44.460 ,2,1,0.,24.0,0.,24.0
1980-11-13 16:02:08.460 ,2,0,0.,24.0,0.,24.0
1980-11-13 16:02:32.460 ,3,1,0.,24.0,0.,24.0
1980-11-13 16:02:56.460 ,3,0,0.,24.0,0.,24.0
1980-11-13 16:03:20.460 ,4,1,0.,24.0,0.,24.0
1980-11-13 16:03:44.460 ,4,0,0.,24.0,0.,24.0
1980-11-13 16:04:08.460 ,5,1,0.,24.0,0.,24.0
1980-11-13 16:04:32.460 ,5,0,0.,24.0,0.,24.0
1980-11-13 16:04:56.460 ,6,1,0.,24.0,0.,24.0
1980-11-13 16:05:20.460 ,6,0,0.,24.0,0.,24.0
1980-11-13 16:05:44.460 ,7,1,0.,24.0,0.,24.0
1980-11-13 16:06:08.460 ,7,0,0.,24.0,0.,24.0
1980-11-13 16:06:32.460 ,7,1,0.,24.0,0.,24.0
1980-11-13 16:06:56.460 ,7,0,0.,24.0,0.,24.0
1980-11-13 16:07:20.460 ,6,1,0.,24.0,0.,24.0
1980-11-13 16:07:44.460 ,6,0,0.,24.0,0.,24.0
1980-11-13 16:08:08.460 ,5,1,0.,24.0,0.,24.0
1980-11-13 16:08:32.460 ,5,0,0.,24.0,0.,24.0
1980-11-13 16:08:56.460 ,4,1,0.,24.0,0.,24.0
1980-11-13 16:09:20.460 ,4,0,0.,24.0,0.,24.0
1980-11-13 16:09:44.460 ,3,1,0.,24.0,0.,24.0
1980-11-13 16:10:08.460 ,3,0,0.,24.0,0.,24.0
1980-11-13 16:10:32.460 ,2,1,0.,24.0,0.,24.0
1980-11-13 16:10:56.460 ,2,0,0.,24.0,0.,24.0
1980-11-13 16:11:20.460 ,1,1,0.,24.0,0.,24.0
1980-11-13 16:11:44.460 ,1,0,0.,24.0,0.,24.0
1980-11-13 16:12:08.460 ,0,1,0.,24.0,0.,24.0
1980-11-13 16:12:32.460 ,0,0,1.,24.0,0.,24.0
1980-11-13 16:12:56.460 ,0,1,0.,24.0,0.,24.0
1980-11-13 16:13:20.460 ,0,0,0.,24.0,0.,24.0
1980-11-13 16:13:44.460 ,1,1,0.,24.0,0.,24.0
1980-11-13 16:14:08.460 ,1,0,0.,24.0,0.,24.0
1980-11-13 16:14:32.460 ,2,1,0.,24.0,0.,24.0
1980-11-13 16:14:56.460 ,2,0,0.,24.0,0.,24.0
1980-11-13 16:15:20.460 ,3,1,0.,24.0,0.,24.0
1980-11-13 16:15:44.460 ,3,0,0.,24.0,0.,24.0
1980-11-13 16:16:08.460 ,4,1,0.,24.0,0.,24.0
1980-11-13 16:16:32.460 ,4,0,0.,24.0,0.,24.0
1980-11-13 16:16:56.460 ,5,1,0.,24.0,0.,24.0
1980-11-13 16:17:20.450 ,5,0,0.,24.0,0.,24.0
1980-11-13 16:17:44.460 ,6,1,0.,24.0,0.,24.0
1980-11-13 16:18:08.460 ,6,0,0.,24.0,0.,24.0
1980-11-13 16:18:32.460 ,7,1,0.,24.0,0.,24.0
1980-11-13 16:18:56.460 ,7,0,0.,24.0,0.,24.0
1980-11-13 16:19:20.460 ,7,1,0.,24.0,0.,24.0
1980-11-13 16:19:44.460 ,7,0,0.,24.0,0.,24.0
1980-11-13 16:20:08.460 ,6,1,0.,24.0,0.,24.0
1980-11-13 16:20:32.460 ,6,0,0.,24.0,0.,24.0
1980-11-13 16:20:56.460 ,5,1,0.,24.0,0.,24.0
1980-11-13 16:21:20.460 ,5,0,0.,24.0,0.,24.0
1980-11-13 16:21:44.460 ,4,1,0.,24.0,0.,24.0
1980-11-13 16:22:08.460 ,4,0,0.,24.0,0.,24.0
1980-11-13 16:22:32.460 ,3,1,1.,24.0,0.,24.0
1980-11-13 16:22:56.460 ,3,0,0.,24.0,0.,24.0
1980-11-13 16:23:20.460 ,2,1,0.,24.0,0.,24.0
1980-11-13 16:23:44.460 ,2,0,0.,24.0,0.,24.0
1980-11-13 16:24:08.460 ,1,1,0.,24.0,0.,24.0
1980-11-13 16:24:32.460 ,1,0,0.,24.0,0.,24.0
1980-11-13 16:24:56.460 ,0,1,0.,24.0,0.,24.0
1980-11-13 16:25:20.460 ,0,0,0.,24.0,0.,24.0
1980-11-13 16:25:44.460 ,0,1,0.,24.0,0.,24.0
1980-11-13 16:26:08.460 ,0,0,0.,24.0,0.,24.0
1980-11-13 16:26:32.460 ,1,1,0.,24.0,0.,24.0
1980-11-13 16:26:56.460 ,1,0,0.,24.0,0.,24.0
1980-11-13 16:27:20.460 ,2,1,0.,24.0,0.,24.0
1980-11-13 16:27:44.460 ,2,0,0.,24.0,0.,24.0
1980-11-13 16:28:08.460 ,3,1,0.,24.0,0.,24.0
1980-11-13 16:28:32.460 ,3,0,0.,24.0,0.,24.0
1980-11-13 16:28:56.460 ,4,1,0.,24.0,0.,24.0
1980-11-13 16:29:20.460 ,4,0,0.,24.0,0.,24.0
1980-11-13 16:29:44.460 ,5,1,0.,24.0,0.,24.0
1980-11-13 16:30:08.460 ,5,0,0.,24.0,0.,24.0
1980-11-13 16:30:32.460 ,6,1,0.,24.0,0.,24.0
1980-11-13 16:30:56.460 ,6,0,0.,24.0,0.,24.0
1980-11-13 16:31:20.460 ,7,1,0.,24.0,0.,24.0
1980-11-13 16:31:44.460 ,7,0,1.,24.0,0.,24.0
1980-11-13 16:32:08.460 ,7,1,0.,24.0,0.,24.0
1980-11-13 16:32:32.460 ,7,0,0.,24.0,0.,24.0
1980-11-13 16:32:56.460 ,6,1,0.,24.0,0.,24.0
1980-11-13 16:33:20.460 ,6,0,0.,24.0,0.,24.0
1980-11-13 16:33:44.460 ,5,1,0.,24.0,0.,24.0
1980-11-13 16:34:08.460 ,5,0,0.,24.0,0.,24.0
1980-11-13 16:34:32.460 ,4,1,0.,24.0,0.,24.0
1980-11-13 16:34:56.460 ,4,0,0.,24.0,0.,24.0
1980-11-13 16:35:20.460 ,3,1,0.,24.0,0.,24.0
1980-11-13 16:35:44.460 ,3,0,0.,24.0,0.,24.0
1980-11-13 16:36:08.460 ,2,1,0.,24.0,0.,24.0
1980-11-13 16:36:32.460 ,2,0,0.,24.0,0.,24.0
1980-11-13 16:36:56.460 ,1,1,0.,24.0,0.,24.0
1980-11-13 16:37:20.460 ,1,0,0.,24.0,0.,24.0
1980-11-13 16:37:44.460 ,0,1,0.,24.0,0.,24.0
1980-11-13 16:38:08.460 ,0,0,0.,24.0,0.,24.0
1980-11-13 16:38:32.460 ,0,1,0.,24.0,0.,24.0
1980-11-13 16:38:56.460 ,0,0,0.,24.0,0.,24.0
1980-11-13 16:39:20.460 ,1,1,0.,24.0,0.,24.0
1980-11-13 16:39:44.460 ,1,0,0.,24.0,0.,24.0
1980-11-13 16:40:08.460 ,2,1,0.,24.0,0.,24.0
1980-11-13 16:40:32.460 ,2,0,0.,24.0,0.,24.0
1980-11-13 16:40:56.460 ,3,1,0.,24.0,0.,24.0
1980-11-13 16:41:20.460 ,0,0,0.,24.0,0.,24.0
1980-11-13 16:45:48.660 ,0,0,0.,24.0,0.,24.0
1980-11-13 16:46:08.460 ,0,0,0.,24.0,0.,24.0
1980-11-13 16:46:32.460 ,5,1,1.,24.0,0.,24.0
1980-11-13 16:46:56.460 ,5,0,0.,24.0,0.,24.0
1980-11-13 16:47:20.460 ,4,1,0.,24.0,0.,24.0
1980-11-13 16:47:44.460 ,4,0,0.,24.0,0.,24.0
1980-11-13 16:48:08.460 ,3,1,0.,24.0,0.,24.0
1980-11-13 16:48:32.460 ,3,0,0.,24.0,0.,24.0
1980-11-13 16:48:56.460 ,2,1,0.,24.0,0.,24.0
1980-11-13 16:49:20.460 ,2,0,0.,24.0,0.,24.0
1980-11-13 16:49:44.460 ,1,1,0.,24.0,0.,24.0
1980-11-13 16:50:08.460 ,1,0,0.,24.0,0.,24.0
1980-11-13 16:50:32.460 ,0,1,0.,24.0,0.,24.0
1980-11-13 16:50:56.460 ,0,0,0.,24.0,0.,24.0
1980-11-13 16:51:20.460 ,0,1,0.,24.0,0.,24.0
1980-11-13 16:51:44.460 ,0,0,0.,24.0,0.,24.0
1980-11-13 16:52:08.460 ,1,1,0.,24.0,0.,24.0
1980-11-13 16:52:32.460 ,1,0,0.,24.0,0.,24.0
1980-11-13 16:52:56.460 ,2,1,0.,24.0,0.,24.0
1980-11-13 16:53:20.460 ,2,0,0.,24.0,0.,24.0
1980-11-13 16:53:44.460 ,3,1,0.,24.0,0.,24.0
1980-11-13 16:54:08.460 ,3,0,0.,24.0,0.,24.0
1980-11-13 16:54:32.460 ,4,1,0.,24.0,0.,24.0
1980-11-13 16:54:56.460 ,4,0,0.,24.0,0.,24.0
1980-11-13 16:55:20.460 ,5,1,0.,24.0,0.,24.0
1980-11-13 16:55:44.460 ,5,0,0.,24.0,0.,24.0
1980-11-13 16:56:08.460 ,6,1,0.,24.0,0.,24.0
1980-11-13 16:56:32.460 ,6,0,0.,24.0,0.,24.0
1980-11-13 16:56:56.460 ,7,1,0.,24.0,0.,24.0
1980-11-13 16:57:20.460 ,7,0,0.,24.0,0.,24.0
1980-11-13 16:57:44.460 ,7,1,0.,24.0,0.,24.0
1980-11-13 16:58:08.460 ,7,0,0.,24.0,0.,24.0
1980-11-13 16:58:32.460 ,6,1,0.,24.0,0.,24.0
1980-11-13 16:58:56.460 ,6,0,0.,24.0,0.,24.0
1980-11-13 16:59:20.460 ,5,1,0.,24.0,0.,24.0
1980-11-13 16:59:44.460 ,5,0,0.,24.0,0.,24.0
1980-11-13 17:00:08.460 ,4,1,0.,24.0,0.,24.0
1980-11-13 17:00:32.460 ,4,0,0.,24.0,0.,24.0
1980-11-13 17:00:56.460 ,3,1,0.,24.0,0.,24.0
1980-11-13 17:01:20.460 ,3,0,0.,24.0,0.,24.0
1980-11-13 17:01:44.460 ,2,1,0.,24.0,0.,24.0
1980-11-13 17:02:08.460 ,2,0,0.,24.0,0.,24.0
1980-11-13 17:02:32.460 ,1,1,0.,24.0,0.,24.0
1980-11-13 17:02:56.460 ,1,0,0.,24.0,0.,24.0
1980-11-13 17:03:20.460 ,0,1,0.,24.0,0.,24.0
1980-11-13 17:03:44.460 ,0,0,0.,24.0,0.,24.0
1980-11-13 17:04:08.460 ,0,1,0.,24.0,0.,24.0
1980-11-13 17:04:32.460 ,0,0,0.,24.0,0.,24.0
1980-11-13 17:04:56.460 ,1,1,0.,24.0,0.,24.0
1980-11-13 17:05:20.460 ,1,0,0.,24.0,0.,24.0
1980-11-13 17:05:44.460 ,2,1,0.,24.0,0.,24.0
1980-11-13 17:06:08.460 ,2,0,0.,24.0,0.,24.0
1980-11-13 17:06:32.460 ,3,1,0.,24.0,0.,24.0
1980-11-13 17:06:56.460 ,3,0,0.,24.0,0.,24.0
1980-11-13 17:07:20.460 ,4,1,0.,24.0,0.,24.0
1980-11-13 17:07:44.460 ,4,0,0.,24.0,0.,24.0
1980-11-13 17:08:08.460 ,5,1,0.,24.0,0.,24.0
1980-11-13 17:08:32.460 ,5,0,0.,24.0,0.,24.0
1980-11-13 17:08:56.460 ,6,1,0.,24.0,0.,24.0
1980-11-13 17:09:20.460 ,6,0,0.,24.0,0.,24.0
1980-11-13 17:09:44.460 ,7,1,0.,24.0,0.,24.0
1980-11-13 17:10:08.460 ,7,0,0.,24.0,0.,24.0
1980-11-13 17:10:32.460 ,7,1,0.,24.0,0.,24.0
1980-11-13 17:10:56.460 ,7,0,0.,24.0,0.,24.0
1980-11-13 17:11:20.460 ,6,1,0.,24.0,0.,24.0
1980-11-13 17:11:44.460 ,6,0,0.,24.0,0.,24.0
1980-11-13 17:12:08.460 ,5,1,0.,24.0,0.,24.0
1980-11-13 17:12:32.460 ,5,0,0.,24.0,0.,24.0
1980-11-13 17:12:56.460 ,4,1,0.,24.0,0.,24.0
1980-11-13 17:13:20.460 ,4,0,0.,24.0,0.,24.0
1980-11-13 17:13:44.460 ,3,1,0.,24.0,0.,24.0
1980-11-13 17:14:08.460 ,3,0,0.,24.0,0.,24.0
1980-11-13 17:14:32.460 ,2,1,0.,24.0,0.,24.0
1980-11-13 17:14:56.460 ,2,0,0.,24.0,0.,24.0
1980-11-13 17:15:20.460 ,1,1,0.,24.0,0.,24.0
1980-11-13 17:15:44.460 ,1,0,0.,24.0,0.,24.0
1980-11-13 17:16:08.460 ,0,1,0.,24.0,0.,24.0
1980-11-13 17:16:32.460 ,0,0,0.,24.0,0.,24.0
1980-11-13 17:16:56.460 ,0,1,0.,24.0,0.,24.0
1980-11-13 17:17:20.460 ,0,0,0.,24.0,0.,24.0
1980-11-13 17:17:44.460 ,1,1,0.,24.0,0.,24.0
1980-11-13 17:18:08.460 ,1,0,0.,24.0,0.,24.0
1980-11-13 17:18:32.460 ,2,1,0.,24.0,0.,24.0
1980-11-13 17:18:56.460 ,2,0,0.,24.0,0.,24.0
1980-11-13 17:19:20.460 ,3,1,0.,24.0,0.,24.0
1980-11-13 17:19:44.460 ,3,0,0.,24.0,0.,24.0
1980-11-13 17:20:08.460 ,4,1,0.,24.0,0.,24.0
1980-11-13 17:20:32.460 ,4,0,0.,24.0,0.,24.0
1980-11-13 17:20:56.460 ,5,1,0.,24.0,0.,24.0
1980-11-13 17:21:20.460 ,5,0,0.,24.0,0.,24.0
1980-11-13 17:21:44.460 ,6,1,0.,24.0,0.,24.0
1980-11-13 17:22:08.460 ,6,0,0.,24.0,0.,24.0
1980-11-13 17:22:32.460 ,7,1,0.,24.0,0.,24.0
1980-11-13 17:22:56.460 ,7,0,0.,24.0,0.,24.0
1980-11-13 17:23:20.460 ,7,1,0.,24.0,0.,24.0
1980-11-13 17:23:44.460 ,7,0,0.,24.0,0.,24.0
1980-11-13 17:24:08.460 ,6,1,0.,24.0,0.,24.0
1980-11-13 17:24:32.460 ,6,0,0.,24.0,0.,24.0
1980-11-13 17:24:56.460 ,5,1,0.,24.0,0.,24.0
1980-11-13 17:25:20.460 ,5,0,0.,24.0,0.,24.0
1980-11-13 17:25:44.460 ,4,1,0.,24.0,0.,24.0
1980-11-13 17:26:08.460 ,4,0,1.,24.0,0.,24.0
1980-11-13 17:26:32.460 ,3,1,0.,24.0,0.,24.0
1980-11-13 17:26:56.460 ,3,0,0.,24.0,0.,24.0
1980-11-13 17:27:20.460 ,2,1,0.,24.0,0.,24.0
1980-11-13 17:27:44.460 ,2,0,0.,24.0,0.,24.0
1980-11-13 17:28:08.460 ,1,1,0.,24.0,0.,24.0
1980-11-13 17:28:32.460 ,1,0,0.,24.0,0.,24.0
1980-11-13 17:28:56.460 ,0,1,0.,24.0,0.,24.0
1980-11-13 17:29:20.460 ,0,0,0.,24.0,0.,24.0
1980-11-13 17:29:44.460 ,0,1,0.,24.0,0.,24.0
1980-11-13 17:30:08.460 ,0,0,0.,24.0,0.,24.0
1980-11-13 17:30:32.460 ,1,1,0.,24.0,0.,24.0
1980-11-13 17:30:56.460 ,1,0,0.,24.0,0.,24.0
1980-11-13 17:31:20.460 ,2,1,0.,24.0,0.,24.0
1980-11-13 17:31:44.460 ,2,0,0.,24.0,0.,24.0
1980-11-13 17:32:08.460 ,3,1,0.,24.0,0.,24.0
1980-11-13 17:32:32.460 ,3,0,0.,24.0,0.,24.0
1980-11-13 17:32:56.460 ,4,1,0.,24.0,0.,24.0
1980-11-13 17:33:20.460 ,4,0,0.,24.0,0.,24.0
1980-11-13 17:33:44.460 ,5,1,0.,24.0,0.,24.0
1980-11-13 17:34:08.460 ,5,0,0.,24.0,0.,24.0
1980-11-13 17:34:32.460 ,6,1,0.,24.0,0.,24.0
1980-11-13 17:34:56.460 ,6,0,0.,24.0,0.,24.0
1980-11-13 17:35:20.460 ,7,1,0.,24.0,0.,24.0
1980-11-13 17:35:44.460 ,7,0,0.,24.0,0.,24.0
1980-11-13 17:36:08.460 ,7,1,0.,24.0,0.,24.0
1980-11-13 17:36:32.460 ,7,0,0.,24.0,0.,24.0
1980-11-13 17:36:56.460 ,6,1,1.,24.0,0.,24.0
1980-11-13 17:37:20.460 ,6,0,0.,24.0,0.,24.0
1980-11-13 17:37:44.460 ,5,1,0.,24.0,0.,24.0
1980-11-13 17:38:08.460 ,5,0,0.,24.0,0.,24.0
1980-11-13 17:38:32.460 ,4,1,0.,24.0,0.,24.0
1980-11-13 17:38:56.460 ,4,0,0.,24.0,0.,24.0
1980-11-13 17:39:20.460 ,3,1,0.,24.0,0.,24.0
1980-11-13 17:39:44.460 ,3,0,0.,24.0,0.,24.0
1980-11-13 17:40:08.460 ,2,1,0.,24.0,0.,24.0
1980-11-13 17:40:32.460 ,2,0,1.,24.0,0.,24.0
1980-11-13 17:40:56.460 ,1,1,0.,24.0,0.,24.0
1980-11-13 17:41:20.460 ,1,0,0.,24.0,0.,24.0
1980-11-13 17:41:44.460 ,0,1,0.,24.0,0.,24.0
1980-11-13 17:42:08.460 ,0,0,0.,24.0,0.,24.0
1980-11-13 17:42:32.460 ,0,1,0.,24.0,0.,24.0
1980-11-13 17:42:56.460 ,0,0,0.,24.0,0.,24.0
1980-11-13 17:43:20.460 ,1,1,0.,24.0,0.,24.0
1980-11-13 17:43:44.460 ,1,0,0.,24.0,0.,24.0
1980-11-13 17:44:08.460 ,2,1,0.,24.0,0.,24.0
1980-11-13 17:44:32.460 ,2,0,0.,24.0,0.,24.0
1980-11-13 17:44:56.460 ,3,1,0.,24.0,0.,24.0
1980-11-13 17:45:20.460 ,3,0,0.,24.0,0.,24.0
1980-11-13 17:45:44.460 ,4,1,0.,24.0,0.,24.0
1980-11-13 17:46:08.460 ,4,0,0.,24.0,0.,24.0
1980-11-13 17:46:32.460 ,5,1,0.,24.0,0.,24.0
1980-11-13 17:46:56.460 ,5,0,0.,24.0,0.,24.0
1980-11-13 17:47:20.460 ,6,1,0.,24.0,0.,24.0
1980-11-13 17:47:44.460 ,6,0,0.,24.0,0.,24.0
1980-11-13 17:48:08.460 ,7,1,0.,24.0,0.,24.0
1980-11-13 17:48:32.460 ,7,0,0.,24.0,0.,24.0
1980-11-13 17:48:56.460 ,7,1,0.,24.0,0.,24.0
1980-11-13 17:49:20.460 ,7,0,0.,24.0,0.,24.0
1980-11-13 17:49:44.460 ,6,1,0.,24.0,0.,24.0
1980-11-13 17:50:08.460 ,6,0,0.,24.0,0.,24.0
1980-11-13 17:50:32.460 ,5,1,0.,24.0,0.,24.0
1980-11-13 17:50:56.460 ,5,0,0.,24.0,0.,24.0
1980-11-13 17:51:20.460 ,4,1,0.,24.0,0.,24.0
1980-11-13 17:51:44.460 ,4,0,0.,24.0,0.,24.0
1980-11-13 17:52:08.460 ,3,1,0.,24.0,0.,24.0
1980-11-13 17:52:32.460 ,3,0,0.,24.0,0.,24.0
1980-11-13 17:52:56.460 ,2,1,0.,24.0,0.,24.0
1980-11-13 17:53:20.460 ,2,0,0.,24.0,0.,24.0
1980-11-13 17:53:44.460 ,1,1,0.,24.0,0.,24.0
1980-11-13 17:54:08.460 ,1,0,0.,24.0,0.,24.0
1980-11-13 17:54:32.460 ,0,1,0.,24.0,0.,24.0
1980-11-13 17:54:56.460 ,0,0,0.,24.0,0.,24.0
1980-11-13 17:55:20.460 ,0,1,0.,24.0,0.,24.0
1980-11-13 17:55:44.460 ,0,0,0.,24.0,0.,24.0
1980-11-13 17:56:08.460 ,1,1,0.,24.0,0.,24.0
1980-11-13 17:56:32.460 ,1,0,0.,24.0,0.,24.0
1980-11-13 17:56:56.460 ,2,1,0.,24.0,0.,24.0
1980-11-13 17:57:20.460 ,2,0,0.,24.0,0.,24.0
1980-11-13 17:57:44.460 ,3,1,0.,24.0,0.,24.0
1980-11-13 17:58:08.460 ,3,0,0.,24.0,0.,24.0
1980-11-13 17:58:32.460 ,4,1,0.,24.0,0.,24.0
1980-11-13 17:58:56.460 ,4,0,0.,24.0,0.,24.0
1980-11-13 17:59:20.460 ,5,1,0.,24.0,0.,24.0
1980-11-13 17:59:44.460 ,5,0,0.,24.0,0.,24.0
1980-11-13 18:00:08.460 ,6,1,0.,24.0,0.,24.0
